Tiree, United Kingdom

8:55 AM GMT on January 18, 2017 (GMT +0000)
Tiree

Weather History for 03100 - April, 2014

Change the Weather History Date:

Monday, April 7, 2014

  Actual Average Record
Temperature  
Mean Temperature 46 °F -  
Max Temperature 51 °F 51 °F - ()
Min Temperature 41 °F 41 °F - ()
Degree Days  
Heating Degree Days 19    
Moisture  
Dew Point 43 °F    
Average Humidity 87    
Maximum Humidity 93    
Minimum Humidity 74    
Precipitation  
Precipitation 0.03 in 0.08 in - ()
Sea Level Pressure  
Sea Level Pressure 29.57 in    
Wind  
Wind Speed 13 mph ()    
Max Wind Speed 18 mph    
Max Gust Speed -    
Visibility 7.7 miles    
Events Rain    
T = Trace of Precipitation, MM = Missing Value Source: Averaged Metar Reports

Daily Weather History Graph

Daily Weather History Graph

Search for Another Location

Airport or City:

Trip Planner

Search our weather history database for the weather conditions in past years. The results will help you decide how hot, cold, wet, or windy it might be!

Date:

Astronomy

Apr. 07, 2014 Rise Set
Actual Time 6:41 AM BST 8:18 PM BST
Civil Twilight 6:02 AM BST 8:58 PM BST
Nautical Twilight 5:13 AM BST 9:47 PM BST
Astronomical Twilight 4:17 AM BST 10:44 PM BST
Moon 11:53 AM BST (4/7) 3:19 AM BST (4/7)
Length of Visible Light 14h 55m
Length of Day
13h 36m
Waxing Crescent, 51% of the Moon is Illuminated
Apr 7
Waxing Crescent
Apr 15
Full
Apr 22
Last Quarter
Apr 29
New
May 7
First Quarter

Hourly Weather History & Observations

Time (BST) Temp. Windchill Dew Point Humidity Pressure Visibility Wind Dir Wind Speed Gust Speed Precip Events Conditions
12:00 AM 47 °F - 45 °F 88% 29.62 in 3 mi SSW 17.3 mph - - Rain Light Rain Showers
12:20 AM 46.4 °F 39.2 °F 42.8 °F 87% 29.62 in 3.7 mi SW 18.4 mph - N/A Rain Rain Showers
12:50 AM 46.4 °F 40.7 °F 44.6 °F 93% 29.62 in 6.2 mi WSW 12.7 mph - N/A   Mostly Cloudy
1:00 AM 46 °F - 44 °F 89% 29.63 in 11 mi WSW 12.7 mph - - Rain Rain
1:20 AM 48.2 °F - 44.6 °F 87% 29.62 in 6.2 mi SSW 16.1 mph - N/A   Mostly Cloudy
1:50 AM 44.6 °F 38.1 °F 42.8 °F 93% 29.62 in 6.2 mi SW 13.8 mph - N/A Rain Light Rain Showers
2:00 AM 45 °F - 42 °F 86% 29.63 in 10 mi SW 13.8 mph - - Rain Light Rain Showers
2:20 AM 46.4 °F 39.2 °F 44.6 °F 93% 29.62 in 4.3 mi SSW 18.4 mph - N/A Rain Rain Showers
2:50 AM 46.4 °F 40.1 °F 44.6 °F 93% 29.59 in 6.2 mi SSW 15.0 mph - N/A   Light Drizzle
3:00 AM 46 °F - 44 °F 89% 29.62 in 7 mi SSW 15.0 mph - - Rain Light Drizzle
3:20 AM 46.4 °F 39.5 °F 44.6 °F 93% 29.59 in 6.2 mi SSW 17.3 mph - N/A   Partly Cloudy
3:50 AM 44.6 °F 38.4 °F 42.8 °F 93% 29.59 in 6.2 mi SW 12.7 mph - N/A   Mostly Cloudy
4:00 AM 45 °F - 42 °F 87% 29.61 in 12 mi SW 12.7 mph - - Rain Rain
4:20 AM 44.6 °F 39.2 °F 42.8 °F 93% 29.59 in 6.2 mi SSW 10.4 mph - N/A   Partly Cloudy
4:50 AM 46.4 °F 41.5 °F 44.6 °F 93% 29.59 in 6.2 mi SSW 10.4 mph - N/A   Unknown
5:00 AM 46 °F - 44 °F 89% 29.61 in 7 mi SSW 10.4 mph - -   Scattered Clouds
5:20 AM 46.4 °F 41.5 °F 44.6 °F 93% 29.59 in 6.2 mi SSW 10.4 mph - N/A   Unknown
5:50 AM 44.6 °F 39.2 °F 42.8 °F 93% 29.59 in 6.2 mi SW 10.4 mph - N/A   Unknown
6:00 AM 45 °F - 43 °F 91% 29.60 in 7 mi SW 10.4 mph - -   Mostly Cloudy
6:20 AM 44.6 °F 39.2 °F 42.8 °F 93% 29.59 in 6.2 mi SSW 10.4 mph - N/A   Unknown
6:50 AM 44.6 °F 39.2 °F 42.8 °F 93% 29.59 in 6.2 mi South 10.4 mph - N/A   Partly Cloudy
7:00 AM 45 °F - 44 °F 92% 29.60 in 7 mi South 10.4 mph - -  
7:20 AM 46.4 °F 40.1 °F 44.6 °F 93% 29.59 in 6.2 mi South 15.0 mph - N/A   Partly Cloudy
7:50 AM 46.4 °F 39.8 °F 44.6 °F 93% 29.59 in 6.2 mi South 16.1 mph - N/A   Scattered Clouds
8:00 AM 46 °F - 44 °F 89% 29.60 in 9 mi South 16.1 mph - -   Partly Cloudy
8:20 AM 46.4 °F 40.4 °F 44.6 °F 93% 29.59 in 6.2 mi South 13.8 mph - N/A   Partly Cloudy
8:50 AM 46.4 °F 39.8 °F 44.6 °F 93% 29.59 in 6.2 mi South 16.1 mph - N/A   Partly Cloudy
9:00 AM 46 °F - 44 °F 91% 29.60 in 9 mi South 16.1 mph - -   Mostly Cloudy
9:20 AM 46.4 °F 39.8 °F 44.6 °F 93% 29.59 in 6.2 mi South 16.1 mph - N/A   Scattered Clouds
9:50 AM 46.4 °F 40.4 °F 42.8 °F 87% 29.56 in 6.2 mi South 13.8 mph - N/A Rain Light Rain
10:00 AM 46 °F - 42 °F 81% 29.59 in 6 mi South 13.8 mph - - Rain Rain Showers
10:20 AM 46.4 °F 39.8 °F 44.6 °F 93% 29.56 in 6.2 mi South 16.1 mph - N/A Rain Light Rain Showers
10:50 AM 46.4 °F 40.1 °F 44.6 °F 93% 29.56 in 6.2 mi South 15.0 mph - N/A Rain Light Rain
11:00 AM 46 °F - 44 °F 91% 29.58 in 8 mi South 15.0 mph - - Rain Rain
11:20 AM 46.4 °F 41.1 °F 44.6 °F 93% 29.56 in 6.2 mi South 11.5 mph - N/A   Scattered Clouds
11:50 AM 46.4 °F 40.4 °F 44.6 °F 93% 29.56 in 6.2 mi South 13.8 mph - N/A   Scattered Clouds
12:00 PM 47 °F - 44 °F 86% 29.58 in 12 mi South 13.8 mph - - Rain Rain
12:20 PM 48.2 °F - 46.4 °F 93% 29.56 in 6.2 mi South 13.8 mph - N/A   Scattered Clouds
12:50 PM 50.0 °F - 46.4 °F 87% 29.56 in 6.2 mi South 15.0 mph - N/A   Scattered Clouds
1:00 PM 49 °F - 46 °F 84% 29.57 in 10 mi South 15.0 mph - -  
1:20 PM 48.2 °F - 44.6 °F 87% 29.56 in 6.2 mi South 16.1 mph - N/A   Partly Cloudy
1:50 PM 50.0 °F - 46.4 °F 87% 29.56 in 6.2 mi South 15.0 mph - N/A   Scattered Clouds
2:00 PM 50 °F - 46 °F 81% 29.56 in 11 mi South 15.0 mph - -   Scattered Clouds
2:20 PM 50.0 °F - 44.6 °F 82% 29.53 in 6.2 mi South 15.0 mph - N/A   Scattered Clouds
2:50 PM 50.0 °F - 44.6 °F 82% 29.53 in 6.2 mi SSW 15.0 mph - N/A   Scattered Clouds
3:00 PM 50 °F - 45 °F 78% 29.55 in 11 mi SSW 15.0 mph - -   Partly Cloudy
3:20 PM 50.0 °F - 46.4 °F 87% 29.53 in 6.2 mi South 15.0 mph - N/A   Scattered Clouds
3:50 PM 50.0 °F - 44.6 °F 82% 29.53 in 6.2 mi SSW 13.8 mph - N/A   Mostly Cloudy
4:00 PM 50 °F - 45 °F 77% 29.54 in 12 mi SSW 13.8 mph - -   Mostly Cloudy
4:20 PM 48.2 °F - 44.6 °F 87% 29.53 in 6.2 mi SW 13.8 mph - N/A   Mostly Cloudy
4:50 PM 50.0 °F - 42.8 °F 76% 29.50 in 6.2 mi WSW 11.5 mph - N/A   Partly Cloudy
5:00 PM 49 °F - 43 °F 74% 29.53 in 16 mi WSW 11.5 mph - -   Scattered Clouds
5:20 PM 48.2 °F - 42.8 °F 82% 29.50 in 6.2 mi WSW 12.7 mph - N/A   Partly Cloudy
5:50 PM 48.2 °F - 42.8 °F 82% 29.50 in 6.2 mi WSW 12.7 mph - N/A   Scattered Clouds
6:00 PM 48 °F - 42 °F 75% 29.53 in 16 mi WSW 12.7 mph - -   Partly Cloudy
6:20 PM 48.2 °F - 44.6 °F 87% 29.53 in 6.2 mi WSW 12.7 mph - N/A   Mostly Cloudy
6:50 PM 48.2 °F - 42.8 °F 82% 29.53 in 6.2 mi WSW 13.8 mph - N/A   Mostly Cloudy
7:00 PM 48 °F - 44 °F 79% 29.54 in 14 mi WSW 13.8 mph - - Rain Rain
7:20 PM 46.4 °F 40.1 °F 41.0 °F 81% 29.53 in 6.2 mi West 15.0 mph - N/A   Unknown
7:50 PM 44.6 °F 39.2 °F 41.0 °F 87% 29.53 in 6.2 mi West 10.4 mph - N/A   Partly Cloudy
8:00 PM 45 °F - 41 °F 80% 29.55 in 18 mi West 10.4 mph - -   Scattered Clouds
8:20 PM 44.6 °F 38.1 °F 39.2 °F 81% 29.53 in 6.2 mi WSW 13.8 mph - N/A Rain Light Rain Showers
8:50 PM 42.8 °F 37.5 °F 41.0 °F 93% 29.56 in 6.2 mi WSW 9.2 mph - N/A   Unknown
9:00 PM 44 °F - 40 °F 83% 29.56 in 16 mi WSW 9.2 mph - - Rain Rain
9:20 PM 42.8 °F 37.0 °F 41.0 °F 93% 29.56 in 6.2 mi West 10.4 mph - N/A   Unknown
9:50 PM 42.8 °F 37.0 °F 39.2 °F 87% 29.56 in 6.2 mi West 10.4 mph - N/A   Unknown
10:00 PM 43 °F - 39 °F 81% 29.58 in 17 mi West 10.4 mph - -  
10:20 PM 44.6 °F 39.2 °F 41.0 °F 87% 29.56 in 6.2 mi West 10.4 mph - N/A   Partly Cloudy
10:50 PM 42.8 °F 37.0 °F 39.2 °F 87% 29.56 in 6.2 mi West 10.4 mph - N/A   Unknown
11:00 PM 43 °F - 38 °F 78% 29.59 in 14 mi West 10.4 mph - -   Partly Cloudy
11:20 PM 41.0 °F 36.4 °F 37.4 °F 87% 29.59 in 6.2 mi West 6.9 mph - N/A   Unknown
11:50 PM 42.8 °F 38.0 °F 39.2 °F 87% 29.59 in 6.2 mi West 8.1 mph - N/A   Partly Cloudy